Back to catalog

INTELSAT 33E DEB

AliveMEO
NORAD 64402·DEBRIS· XX

Launched Aug 24, 2016 from Guiana Space Centre

Loading…

Next Passes (next 24 hours)

TLE

FreshSource: Space-Track

Epoch: Sep 13, 2026, 09:00 UTC

1 64402U 16053AG  26256.37558757 -.00000278  00000-0  00000-0 0  9997
2 64402   1.7348  75.4046 0131999 105.0349 257.2925  0.98355564  6734

Track INTELSAT 33E DEB in real time with AllMySat

Download on the App Store